EN

Hourly Weather Wickford

Today, 28 February, Sunday

Time Temperature Precipitation Wind Pressure Humidity
00:00 +3°C° 0 mm 3 mps 777 mmHg 92%
01:00 +3°C° 0 mm 3 mps 777 mmHg 92%
02:00 +3°C° 0 mm 3 mps 777 mmHg 92%
03:00 +4°C° 0 mm 2 mps 777 mmHg 92%
04:00 +4°C° 0 mm 2 mps 776 mmHg 92%
05:00 +2°C° 0 mm 3 mps 776 mmHg 92%
06:00 +2°C° 0 mm 3 mps 776 mmHg 93%
07:00 +3°C° 0 mm 3 mps 776 mmHg 90%
08:00 +4°C° 0 mm 3 mps 776 mmHg 87%
09:00 +5°C° 0 mm 4 mps 776 mmHg 85%
10:00 +6°C° 0 mm 4 mps 775 mmHg 80%
11:00 +7°C° 0 mm 4 mps 775 mmHg 76%
12:00 +8°C° 0 mm 4 mps 775 mmHg 71%
13:00 +8°C° 0 mm 4 mps 775 mmHg 72%
14:00 +8°C° 0 mm 4 mps 774 mmHg 72%
15:00 +8°C° 0 mm 5 mps 774 mmHg 72%
16:00 +7°C° 0 mm 5 mps 773 mmHg 77%
17:00 +6°C° 0 mm 4 mps 773 mmHg 82%
18:00 +5°C° 0 mm 4 mps 773 mmHg 87%
19:00 +4°C° 0 mm 4 mps 773 mmHg 88%
20:00 +4°C° 0 mm 4 mps 773 mmHg 90%
21:00 +4°C° 0 mm 4 mps 773 mmHg 91%
22:00 +4°C° 0 mm 4 mps 773 mmHg 92%
23:00 +3°C° 0 mm 4 mps 773 mmHg 92%

Tomorrow, 1 March, Monday

Time Temperature Precipitation Wind Pressure Humidity
00:00 +3°C° 0 mm 4 mps 773 mmHg 93%
01:00 +3°C° 0 mm 4 mps 773 mmHg 93%
02:00 +3°C° 0 mm 4 mps 773 mmHg 92%
03:00 +3°C° 0 mm 4 mps 772 mmHg 92%
04:00 +3°C° 0 mm 4 mps 772 mmHg 92%
05:00 +3°C° 0 mm 3 mps 772 mmHg 93%
06:00 +3°C° 0 mm 3 mps 772 mmHg 93%
07:00 +4°C° 0 mm 4 mps 772 mmHg 90%
08:00 +5°C° 0 mm 4 mps 772 mmHg 87%
09:00 +6°C° 0 mm 4 mps 772 mmHg 84%
10:00 +7°C° 0 mm 5 mps 772 mmHg 80%
11:00 +8°C° 0 mm 5 mps 772 mmHg 76%
12:00 +8°C° 0 mm 5 mps 772 mmHg 72%
13:00 +8°C° 0 mm 5 mps 771 mmHg 72%
14:00 +8°C° 0 mm 5 mps 771 mmHg 72%
15:00 +8°C° 0 mm 5 mps 770 mmHg 72%
16:00 +7°C° 0 mm 5 mps 770 mmHg 78%
17:00 +6°C° 0 mm 4 mps 770 mmHg 83%
18:00 +5°C° 0 mm 4 mps 770 mmHg 89%
19:00 +4°C° 0 mm 4 mps 770 mmHg 89%
20:00 +4°C° 0 mm 4 mps 770 mmHg 89%
21:00 +4°C° 0 mm 3 mps 770 mmHg 89%
22:00 +4°C° 0 mm 3 mps 770 mmHg 90%
23:00 +4°C° 0 mm 3 mps 770 mmHg 90%

Day after tomorrow, 2 March, Tuesday

Time Temperature Precipitation Wind Pressure Humidity
00:00 +4°C° 0 mm 3 mps 770 mmHg 90%
01:00 +5°C° 0 mm 2 mps 769 mmHg 90%
02:00 +5°C° 0 mm 2 mps 769 mmHg 90%
03:00 +5°C° 0 mm 2 mps 769 mmHg 90%
04:00 +5°C° 0 mm 2 mps 769 mmHg 90%
05:00 +4°C° 0 mm 2 mps 769 mmHg 91%
06:00 +4°C° 0 mm 2 mps 769 mmHg 91%
07:00 +5°C° 0 mm 2 mps 769 mmHg 88%
08:00 +6°C° 0 mm 2 mps 769 mmHg 84%
09:00 +7°C° 0 mm 2 mps 769 mmHg 81%
10:00 +8°C° 0 mm 2 mps 769 mmHg 76%
11:00 +9°C° 0 mm 2 mps 769 mmHg 70%
12:00 +12°C° 0 mm 2 mps 769 mmHg 64%
13:00 +12°C° 0 mm 2 mps 769 mmHg 64%
14:00 +12°C° 0 mm 2 mps 768 mmHg 65%
15:00 +12°C° 0 mm 2 mps 768 mmHg 65%
16:00 +9°C° 0 mm 2 mps 768 mmHg 71%
17:00 +8°C° 0 mm 2 mps 768 mmHg 78%
18:00 +7°C° 0 mm 2 mps 768 mmHg 84%
19:00 +7°C° 0 mm 1 mps 768 mmHg 84%
20:00 +7°C° 0 mm 1 mps 768 mmHg 85%
21:00 +7°C° 0 mm 1 mps 768 mmHg 85%
22:00 +7°C° 0 mm 1 mps 768 mmHg 85%
23:00 +7°C° 0 mm 1 mps 768 mmHg 84%

3 March, Wednesday

Time Temperature Precipitation Wind Pressure Humidity
00:00 +7°C° 0 mm 1 mps 768 mmHg 84%
01:00 +7°C° 0 mm 1 mps 768 mmHg 84%
02:00 +7°C° 0 mm 1 mps 768 mmHg 83%
03:00 +7°C° 0 mm 1 mps 768 mmHg 83%
04:00 +7°C° 0 mm 1 mps 768 mmHg 84%
05:00 +7°C° 0 mm 1 mps 768 mmHg 85%
06:00 +7°C° 0 mm 1 mps 768 mmHg 87%
07:00 +8°C° 0 mm 1 mps 768 mmHg 85%
08:00 +9°C° 0 mm 1 mps 768 mmHg 84%
09:00 +10°C° 0 mm 1 mps 768 mmHg 83%
10:00 +11°C° 0.1 mm 1 mps 767 mmHg 81%
11:00 +12°C° 0.1 mm 1 mps 767 mmHg 78%
12:00 +13°C° 0.1 mm 1 mps 767 mmHg 76%
13:00 +13°C° 0.3 mm 2 mps 767 mmHg 77%
14:00 +13°C° 0.3 mm 2 mps 766 mmHg 77%
15:00 +13°C° 0.3 mm 2 mps 766 mmHg 78%
16:00 +12°C° 0.7 mm 2 mps 765 mmHg 82%
17:00 +10°C° 0.7 mm 2 mps 765 mmHg 85%
18:00 +9°C° 0.7 mm 3 mps 765 mmHg 89%
19:00 +9°C° 0.2 mm 3 mps 765 mmHg 90%
20:00 +9°C° 0.2 mm 2 mps 764 mmHg 91%
21:00 +8°C° 0.2 mm 2 mps 764 mmHg 92%
22:00 +8°C° 0.2 mm 2 mps 764 mmHg 93%
23:00 +8°C° 0.2 mm 2 mps 764 mmHg 94%

4 March, Thursday

Time Temperature Precipitation Wind Pressure Humidity
00:00 +9°C° 0.2 mm 1 mps 764 mmHg 95%
01:00 +8°C° 0.1 mm 2 mps 763 mmHg 95%
02:00 +7°C° 0.1 mm 3 mps 763 mmHg 95%
03:00 +7°C° 0.1 mm 3 mps 763 mmHg 95%
04:00 +7°C° 0.2 mm 3 mps 763 mmHg 94%
05:00 +7°C° 0.2 mm 3 mps 763 mmHg 93%
06:00 +5°C° 0.2 mm 4 mps 762 mmHg 92%
07:00 +5°C° 0 mm 4 mps 763 mmHg 90%
08:00 +5°C° 0 mm 4 mps 763 mmHg 88%
09:00 +5°C° 0 mm 4 mps 763 mmHg 86%
10:00 +6°C° 0 mm 4 mps 763 mmHg 83%
11:00 +7°C° 0 mm 4 mps 763 mmHg 80%
12:00 +7°C° 0 mm 4 mps 763 mmHg 78%
13:00 +7°C° 0 mm 4 mps 763 mmHg 78%
14:00 +7°C° 0 mm 5 mps 763 mmHg 77%
15:00 +7°C° 0 mm 5 mps 763 mmHg 77%
16:00 +6°C° 0 mm 5 mps 763 mmHg 77%
17:00 +6°C° 0 mm 4 mps 763 mmHg 78%
18:00 +5°C° 0 mm 4 mps 763 mmHg 78%
19:00 +5°C° 0 mm 4 mps 764 mmHg 77%
20:00 +5°C° 0 mm 4 mps 764 mmHg 77%
21:00 +5°C° 0 mm 4 mps 765 mmHg 76%
22:00 +4°C° 0 mm 4 mps 765 mmHg 76%
23:00 +4°C° 0 mm 4 mps 765 mmHg 76%

5 March, Friday

Time Temperature Precipitation Wind Pressure Humidity
00:00 +3°C° 0 mm 4 mps 765 mmHg 75%
01:00 +3°C° 0 mm 4 mps 765 mmHg 77%
02:00 +1°C° 0 mm 4 mps 765 mmHg 79%
03:00 0°C° 0 mm 4 mps 765 mmHg 81%
04:00 +1°C° 0 mm 4 mps 765 mmHg 79%
05:00 +1°C° 0 mm 4 mps 766 mmHg 76%
06:00 +1°C° 0 mm 4 mps 766 mmHg 73%
07:00 +3°C° 0 mm 4 mps 766 mmHg 72%
08:00 +2°C° 0 mm 5 mps 766 mmHg 71%
09:00 +3°C° 0 mm 6 mps 767 mmHg 70%
10:00 +3°C° 0 mm 6 mps 767 mmHg 67%
11:00 +3°C° 0 mm 6 mps 767 mmHg 64%
12:00 +4°C° 0 mm 6 mps 768 mmHg 62%
13:00 +4°C° 0 mm 6 mps 768 mmHg 62%
14:00 +4°C° 0 mm 6 mps 768 mmHg 61%
15:00 +3°C° 0 mm 6 mps 768 mmHg 61%
16:00 +2°C° 0 mm 6 mps 768 mmHg 64%
17:00 +1°C° 0 mm 5 mps 768 mmHg 67%
18:00 0°C° 0 mm 5 mps 768 mmHg 70%
19:00 0°C° 0 mm 4 mps 768 mmHg 72%
20:00 -1°C° 0 mm 4 mps 769 mmHg 74%
21:00 -1°C° 0 mm 4 mps 769 mmHg 76%
22:00 -1°C° 0 mm 4 mps 769 mmHg 76%
23:00 -1°C° 0 mm 4 mps 769 mmHg 77%
Show more